Station History

Weather Underground - logo

Station Historical Data
Daily Summary for December 20, 2017 Units:  Metric    English   Both
« Previous Day
Next Day »
Daily Weekly Monthly Yearly Custom
  High: Low: Average:
Temperature: 9.9 °C 2.2 °C 6.7 °C
Dew Point: 6.7 °C 0.6 °C 3.6 °C
Humidity: 95 % 67 % 81 %
Wind Speed: 20.4 km/h 0 km/h 2.3 km/h
Wind Gust: 20.4 km/h - -
Wind:- - SSW
Pressure: 1022.9 hPa 1019.9 hPa -
Precipitation: 1.02 mm    
Historical Graphs
 
 
Tabular Data for December 20, 2017
Time Temperature Dew Point Pressure Wind Wind Speed Wind Gust Humidity Rainfall Rate (Hourly)
00:03 5.7 °C 1.4 °C 1021.2 hPa Calm     74 % 0 mm
00:06 5.7 °C 1.4 °C 1021.2 hPa Calm     74 % 0 mm
00:07 5.6 °C 1.3 °C 1021.2 hPa Calm     74 % 0 mm
00:12 5.7 °C 1.4 °C 1021.2 hPa Calm     74 % 0 mm
00:17 5.6 °C 1.3 °C 1021.2 hPa Calm     74 % 0 mm
00:22 5.4 °C 1.4 °C 1021.2 hPa Calm     75 % 0 mm
00:26 5.5 °C 1.4 °C 1021.2 hPa Calm     75 % 0 mm
00:31 5.6 °C 1.4 °C 1021.2 hPa Calm     75 % 0 mm
00:36 5.5 °C 1.4 °C 1021.2 hPa Calm     75 % 0 mm
00:41 5.4 °C 1.4 °C 1021.2 hPa Calm     75 % 0 mm
00:43 5.4 °C 1.3 °C 1021.2 hPa Calm     75 % 0 mm
00:48 4.9 °C 1.2 °C 1020.9 hPa Calm     77 % 0 mm
00:50 4.7 °C 1.2 °C 1020.9 hPa Calm     78 % 0 mm
00:55 4.3 °C 1.2 °C 1020.9 hPa Calm     80 % 0 mm
00:57 4.3 °C 1.1 °C 1020.9 hPa Calm     80 % 0 mm
01:02 4.2 °C 1.2 °C 1020.9 hPa Calm     81 % 0 mm
01:07 4.2 °C 1.2 °C 1020.9 hPa Calm     81 % 0 mm
01:08 4.2 °C 1.2 °C 1020.9 hPa Calm     81 % 0 mm
01:13 4.2 °C 1.2 °C 1020.9 hPa Calm     81 % 0 mm
01:14 4.2 °C 1.2 °C 1020.9 hPa Calm     81 % 0 mm
01:19 4.3 °C 1.5 °C 1020.5 hPa Calm     82 % 0 mm
01:20 4.4 °C 1.4 °C 1020.5 hPa Calm     81 % 0 mm
01:25 4.7 °C 1.7 °C 1020.5 hPa Calm     81 % 0 mm
01:26 4.7 °C 1.7 °C 1020.5 hPa Calm     81 % 0 mm
01:31 4.8 °C 1.7 °C 1020.5 hPa Calm     80 % 0 mm
01:33 4.7 °C 1.6 °C 1020.5 hPa Calm     80 % 0 mm
01:38 4.4 °C 1.4 °C 1020.2 hPa Calm     81 % 0 mm
01:39 4.4 °C 1.4 °C 1020.2 hPa Calm     81 % 0 mm
01:44 4.2 °C 1.4 °C 1020.2 hPa Calm     82 % 0 mm
01:49 4.2 °C 1.6 °C 1020.2 hPa Calm     83 % 0 mm
01:51 4.2 °C 1.4 °C 1020.2 hPa Calm     82 % 0 mm
01:55 4.3 °C 1.5 °C 1020.2 hPa Calm     82 % 0 mm
02:00 4.3 °C 1.5 °C 1020.2 hPa Calm     82 % 0 mm
02:02 4.3 °C 1.6 °C 1020.2 hPa Calm     82 % 0 mm
02:06 4.3 °C 1.6 °C 1020.2 hPa Calm     82 % 0 mm
02:08 4.3 °C 1.6 °C 1020.2 hPa Calm     82 % 0 mm
02:13 4.3 °C 1.6 °C 1020.5 hPa Calm     82 % 0 mm
02:15 4.4 °C 1.4 °C 1020.5 hPa Calm     81 % 0 mm
02:18 4.4 °C 1.3 °C 1020.5 hPa Calm     80 % 0 mm
02:23 4.6 °C 1.4 °C 1020.5 hPa Calm     80 % 0 mm
02:26 4.6 °C 1.3 °C 1020.5 hPa Calm     79 % 0 mm
02:29 4.6 °C 1.1 °C 1020.5 hPa Calm     78 % 0 mm
02:35 4.7 °C 1 °C 1020.5 hPa Calm     77 % 0 mm
02:37 4.8 °C 0.9 °C 1020.5 hPa Calm     76 % 0 mm
02:40 4.8 °C 0.9 °C 1020.5 hPa Calm     76 % 0 mm
02:45 5 °C 0.9 °C 1020.5 hPa Calm     75 % 0 mm
02:46 5 °C 0.9 °C 1020.5 hPa Calm     75 % 0 mm
02:51 5.2 °C 0.8 °C 1020.5 hPa Calm     73 % 0 mm
02:53 5.3 °C 0.7 °C 1020.5 hPa Calm     72 % 0 mm
02:58 5.7 °C 0.6 °C 1020.5 hPa Calm     70 % 0 mm
03:00 5.7 °C 0.6 °C 1020.5 hPa Calm     70 % 0 mm
03:01 5.7 °C 0.7 °C 1020.5 hPa Calm     70 % 0 mm
03:05 5.8 °C 0.7 °C 1020.5 hPa Calm     70 % 0 mm
03:08 5.8 °C 0.8 °C 1020.5 hPa Calm     70 % 0 mm
03:11 5.8 °C 0.8 °C 1020.5 hPa Calm     70 % 0 mm
03:15 5.9 °C 0.6 °C 1020.5 hPa Calm     69 % 0 mm
03:18 5.9 °C 0.6 °C 1020.5 hPa Calm     69 % 0 mm
03:23 5.9 °C 0.6 °C 1020.5 hPa Calm     69 % 0 mm
03:24 5.9 °C 0.8 °C 1020.5 hPa Calm     70 % 0 mm
03:29 5.9 °C 0.6 °C 1020.5 hPa Calm     69 % 0 mm
03:32 5.9 °C 1.1 °C 1020.5 hPa Calm     71 % 0 mm
03:37 5.9 °C 1.1 °C 1020.5 hPa Calm     71 % 0 mm
03:40 6.1 °C 0.8 °C 1020.9 hPa Calm     69 % 0 mm
03:44 6.2 °C 0.9 °C 1020.9 hPa Calm     69 % 0 mm
03:45 6.3 °C 1 °C 1020.5 hPa Calm     69 % 0 mm
03:50 6.4 °C 0.8 °C 1020.5 hPa Calm     67 % 0 mm
03:51 6.4 °C 0.9 °C 1020.5 hPa Calm     68 % 0 mm
03:56 6.5 °C 1 °C 1020.2 hPa Calm     68 % 0 mm
03:59 6.6 °C 1.1 °C 1020.5 hPa Calm     68 % 0 mm
04:02 6.6 °C 1.1 °C 1020.5 hPa Calm     68 % 0 mm
04:07 6.6 °C 1.1 °C 1020.5 hPa Calm     68 % 0 mm
04:12 6.5 °C 1.2 °C 1020.5 hPa Calm     69 % 0 mm
04:17 6.4 °C 1.3 °C 1020.5 hPa Calm     70 % 0 mm
04:18 6.4 °C 1.5 °C 1020.2 hPa Calm     71 % 0 mm
04:23 6.3 °C 1.6 °C 1020.2 hPa Calm     72 % 0 mm
04:27 6.3 °C 1.6 °C 1020.2 hPa Calm     72 % 0 mm
04:32 6.4 °C 1.3 °C 1020.2 hPa Calm     70 % 0 mm
04:33 6.4 °C 1.4 °C 1020.2 hPa Calm     70 % 0 mm
04:35 6.4 °C 1.8 °C 1020.2 hPa Calm     72 % 0 mm
04:38 6.4 °C 1.9 °C 1020.2 hPa Calm     73 % 0 mm
04:43 6.4 °C 1.4 °C 1020.2 hPa Calm     70 % 0 mm
04:48 6.4 °C 1.4 °C 1020.2 hPa Calm     70 % 0 mm
04:49 6.5 °C 1.4 °C 1020.2 hPa Calm     70 % 0 mm
04:50 6.5 °C 1.6 °C 1020.2 hPa Calm     71 % 0 mm
04:55 6.5 °C 1.2 °C 1020.2 hPa Calm     69 % 0 mm
04:56 6.6 °C 1.3 °C 1020.2 hPa Calm     69 % 0 mm
05:01 6.7 °C 2 °C 1020.2 hPa Calm     72 % 0 mm
05:05 6.6 °C 1.9 °C 1020.2 hPa SSE 1.9 km/h   72 % 0 mm
05:08 6.6 °C 1.9 °C 1020.2 hPa Calm     72 % 0 mm
05:10 6.5 °C 1.8 °C 1020.2 hPa Calm     72 % 0 mm
05:16 6.4 °C 2.1 °C 1019.9 hPa Calm     74 % 0 mm
05:21 6.4 °C 2.2 °C 1019.9 hPa Calm     74 % 0 mm
05:26 6.6 °C 2.5 °C 1019.9 hPa Calm   0.2 km/h 75 % 0 mm
05:31 6.8 °C 2.9 °C 1019.9 hPa Calm     76 % 0 mm
05:33 6.9 °C 2.9 °C 1019.9 hPa Calm     76 % 0 mm
05:40 7.2 °C 2.9 °C 1019.9 hPa SSE 1.9 km/h 1.9 km/h 74 % 0 mm
05:45 7.4 °C 2.9 °C 1020.2 hPa SE 1.9 km/h 1.9 km/h 73 % 0 mm
05:46 7.4 °C 2.7 °C 1020.2 hPa SE 1.9 km/h 1.9 km/h 72 % 0 mm
05:51 7.4 °C 2.7 °C 1020.2 hPa SE 1.9 km/h   72 % 0 mm
05:52 7.3 °C 2.6 °C 1020.2 hPa SE 1.9 km/h   72 % 0 mm
05:56 7.3 °C 2.6 °C 1020.2 hPa Calm     72 % 0 mm
05:58 7.3 °C 2.8 °C 1020.2 hPa Calm     73 % 0 mm
06:02 7.2 °C 2.7 °C 1020.5 hPa SE 1.9 km/h   73 % 0 mm
06:07 7.1 °C 2.6 °C 1020.9 hPa Calm     73 % 0 mm
06:08 7.1 °C 2.6 °C 1020.9 hPa Calm     73 % 0 mm
06:11 7.1 °C 2.6 °C 1020.9 hPa Calm     73 % 0 mm
06:14 7.1 °C 2.7 °C 1020.5 hPa Calm     74 % 0 mm
06:19 7.1 °C 2.7 °C 1020.9 hPa Calm     74 % 0 mm
06:22 7.1 °C 2.9 °C 1020.9 hPa Calm     75 % 0 mm
06:24 7.1 °C 2.9 °C 1020.9 hPa Calm     75 % 0 mm
06:28 7.2 °C 3.2 °C 1020.9 hPa SE 1.9 km/h 1.9 km/h 76 % 0 mm
06:33 7.4 °C 3.2 °C 1020.9 hPa SE 1.9 km/h   75 % 0 mm
06:38 7.6 °C 3.4 °C 1020.9 hPa SE 3.7 km/h 3.7 km/h 75 % 0 mm
06:39 7.6 °C 3.4 °C 1020.9 hPa SE 5.6 km/h 5.6 km/h 75 % 0 mm
06:41 7.7 °C 3.5 °C 1020.5 hPa SE 3.7 km/h 3.7 km/h 75 % 0 mm
06:46 7.9 °C 3.6 °C 1020.5 hPa SE 1.9 km/h   74 % 0 mm
06:48 8 °C 3.7 °C 1020.5 hPa SE 1.9 km/h 1.9 km/h 74 % 0 mm
06:50 8.1 °C 3.6 °C 1020.5 hPa SE 1.9 km/h   73 % 0 mm
06:55 8.2 °C 3.6 °C 1020.5 hPa SE 1.9 km/h 1.9 km/h 73 % 0 mm
06:57 8.2 °C 3.6 °C 1020.5 hPa SE 1.9 km/h 1.9 km/h 73 % 0 mm
07:02 8.1 °C 3.6 °C 1020.5 hPa SE 1.9 km/h 1.9 km/h 73 % 0 mm
07:04 8.1 °C 3.5 °C 1020.5 hPa SE 3.7 km/h   73 % 0 mm
07:07 8 °C 3.4 °C 1020.5 hPa SE 3.7 km/h 3.7 km/h 73 % 0 mm
07:12 7.9 °C 3.3 °C 1020.5 hPa SE 3.7 km/h 3.7 km/h 73 % 0 mm
07:13 7.9 °C 3.3 °C 1020.5 hPa SE 3.7 km/h 3.7 km/h 73 % 0 mm
07:18 7.9 °C 3.4 °C 1020.5 hPa ESE 1.9 km/h 1.9 km/h 73 % 0 mm
07:19 7.9 °C 3.4 °C 1020.5 hPa Calm     73 % 0 mm
07:24 7.8 °C 3.5 °C 1020.5 hPa SE 3.7 km/h 3.7 km/h 74 % 0 mm
07:29 7.8 °C 3.6 °C 1020.9 hPa Calm     75 % 0 mm
07:30 7.8 °C 3.6 °C 1020.9 hPa Calm     75 % 0 mm
07:35 7.7 °C 3.8 °C 1020.9 hPa Calm     76 % 0 mm
07:36 7.7 °C 3.8 °C 1020.9 hPa Calm     76 % 0 mm
07:41 7.7 °C 3.7 °C 1020.9 hPa Calm     76 % 0 mm
07:42 7.6 °C 3.7 °C 1020.9 hPa Calm   0.2 km/h 76 % 0 mm
07:48 7.5 °C 3.7 °C 1020.9 hPa Calm     77 % 0 mm
07:49 7.5 °C 3.7 °C 1021.2 hPa Calm     77 % 0 mm
07:54 7.3 °C 3.6 °C 1021.2 hPa Calm   0.5 km/h 77 % 0 mm
07:59 7.3 °C 3.5 °C 1021.2 hPa ESE 1.9 km/h 1.9 km/h 77 % 0 mm
08:04 7.2 °C 3.4 °C 1021.2 hPa SE 5.6 km/h 5.6 km/h 77 % 0 mm
08:08 7.1 °C 3.3 °C 1021.2 hPa SE 1.9 km/h   77 % 0 mm
08:11 7.1 °C 3.3 °C 1021.2 hPa SE 1.9 km/h   77 % 0 mm
08:16 7 °C 3.1 °C 1021.2 hPa Calm     76 % 0 mm
08:17 6.9 °C 3 °C 1021.2 hPa SE 1.9 km/h 1.9 km/h 76 % 0 mm
08:23 6.9 °C 2.9 °C 1021.2 hPa Calm     76 % 0 mm
08:27 6.8 °C 2.9 °C 1021.2 hPa Calm     76 % 0 mm
08:32 6.8 °C 2.8 °C 1021.2 hPa Calm     76 % 0 mm
08:34 6.8 °C 2.8 °C 1021.6 hPa SE 1.9 km/h   76 % 0 mm
08:35 6.8 °C 2.8 °C 1021.6 hPa Calm     76 % 0 mm
08:40 6.8 °C 2.9 °C 1021.6 hPa Calm     76 % 0 mm
08:42 6.8 °C 2.9 °C 1021.6 hPa Calm     76 % 0 mm
08:47 6.9 °C 3 °C 1021.2 hPa Calm     76 % 0 mm
08:48 7 °C 3.1 °C 1021.2 hPa SE 3.2 km/h 3.2 km/h 76 % 0 mm
08:51 7.1 °C 3.2 °C 1021.2 hPa Calm     76 % 0 mm
08:54 7.2 °C 3.3 °C 1021.2 hPa SE 5.6 km/h 5.6 km/h 76 % 0 mm
08:59 7.3 °C 3.1 °C 1021.2 hPa ESE 3.7 km/h 3.7 km/h 75 % 0 mm
09:00 7.3 °C 3.1 °C 1021.2 hPa ESE 3.7 km/h 3.7 km/h 75 % 0 mm
09:05 7.4 °C 3.2 °C 1021.2 hPa SE 5.6 km/h 5.6 km/h 75 % 0 mm
09:06 7.4 °C 3.1 °C 1021.2 hPa SE 1.9 km/h 1.9 km/h 74 % 0 mm
09:08 7.4 °C 3.1 °C 1021.2 hPa SE 1.9 km/h 1.9 km/h 74 % 0 mm
09:11 7.5 °C 3.2 °C 1021.6 hPa SE 1.9 km/h 1.9 km/h 74 % 0 mm
09:14 7.6 °C 3.2 °C 1021.2 hPa East 5.6 km/h 5.6 km/h 74 % 0 mm
09:17 7.6 °C 3.1 °C 1021.2 hPa East 5.6 km/h 5.6 km/h 73 % 0 mm
09:19 7.7 °C 3.1 °C 1021.2 hPa NNE 5.6 km/h 5.6 km/h 73 % 0 mm
09:24 7.8 °C 3.3 °C 1021.6 hPa NNE 3.7 km/h   73 % 0 mm
09:26 7.9 °C 3.3 °C 1021.6 hPa NW 1.9 km/h 1.9 km/h 73 % 0 mm
09:27 7.9 °C 3.3 °C 1021.6 hPa NW 1.9 km/h 1.9 km/h 73 % 0 mm
09:32 8 °C 3.3 °C 1021.9 hPa West 3.7 km/h 3.7 km/h 72 % 0 mm
09:37 7.9 °C 3.2 °C 1022.2 hPa NW 3.7 km/h 3.7 km/h 72 % 0 mm
09:38 7.9 °C 3.4 °C 1022.2 hPa NW 3.7 km/h 3.7 km/h 73 % 0 mm
09:43 7.7 °C 3.2 °C 1022.2 hPa NW 1.9 km/h 1.9 km/h 73 % 0 mm
09:44 7.7 °C 3.1 °C 1022.2 hPa NW 1.9 km/h   73 % 0 mm
09:49 7.6 °C 3.1 °C 1022.2 hPa NW 1.9 km/h 1.9 km/h 73 % 0 mm
09:50 7.6 °C 3.1 °C 1022.2 hPa WNW 1.9 km/h 1.9 km/h 73 % 0 mm
09:55 7.6 °C 3.1 °C 1022.2 hPa Calm     73 % 0 mm
10:00 7.6 °C 2.7 °C 1021.9 hPa Calm     71 % 0 mm
10:01 7.6 °C 2.7 °C 1021.9 hPa Calm     71 % 0 mm
10:03 7.7 °C 2.7 °C 1022.2 hPa Calm     71 % 0 mm
10:08 7.8 °C 3.1 °C 1021.9 hPa Calm     72 % 0 mm
10:12 7.8 °C 2.9 °C 1021.6 hPa West 3.7 km/h 3.7 km/h 71 % 0 mm
10:13 7.8 °C 3.3 °C 1021.9 hPa West 1.9 km/h   73 % 0 mm
10:18 7.9 °C 3 °C 1022.2 hPa West 1.9 km/h   71 % 0 mm
10:19 7.9 °C 3 °C 1022.2 hPa Calm     71 % 0 mm
10:24 8 °C 3.1 °C 1022.2 hPa WNW 1.6 km/h 1.6 km/h 71 % 0 mm
10:28 8.1 °C 3.2 °C 1022.6 hPa Calm     71 % 0 mm
10:33 8.2 °C 2.9 °C 1022.6 hPa NW 1.9 km/h 1.9 km/h 69 % 0 mm
10:38 8.3 °C 3.1 °C 1022.6 hPa NW 5.6 km/h 5.6 km/h 70 % 0 mm
10:39 8.3 °C 3.3 °C 1022.2 hPa NW 5.6 km/h 5.6 km/h 71 % 0 mm
10:44 8.3 °C 3.4 °C 1022.2 hPa NW 3.7 km/h 3.7 km/h 71 % 0 mm
10:49 8.5 °C 3.7 °C 1021.9 hPa NW 3.7 km/h 3.7 km/h 72 % 0 mm
10:54 8.7 °C 3.8 °C 1021.9 hPa NW 1.9 km/h 1.9 km/h 71 % 0 mm
10:55 8.7 °C 3.9 °C 1021.9 hPa NW 3.7 km/h 3.7 km/h 72 % 0 mm
11:02 9 °C 3.8 °C 1022.2 hPa WNW 5.6 km/h 5.6 km/h 70 % 0 mm
11:05 9.1 °C 3.9 °C 1022.2 hPa WNW 4.8 km/h 4.8 km/h 70 % 0 mm
11:10 9.3 °C 3.9 °C 1022.2 hPa NNW 5.6 km/h 5.6 km/h 69 % 0 mm
11:11 9.3 °C 3.9 °C 1022.2 hPa WNW 5.6 km/h 5.6 km/h 69 % 0 mm
11:16 9.4 °C 3.8 °C 1022.2 hPa NW 7.4 km/h 7.4 km/h 68 % 0 mm
11:21 9.6 °C 4.2 °C 1022.2 hPa NW 6.4 km/h 6.4 km/h 69 % 0 mm
11:22 9.7 °C 4.4 °C 1022.2 hPa WNW 7.4 km/h 7.4 km/h 70 % 0 mm
11:27 9.6 °C 5.9 °C 1022.6 hPa NW 14.8 km/h 14.8 km/h 78 % 0 mm
11:29 9.4 °C 6.2 °C 1022.2 hPa NW 18.5 km/h 18.5 km/h 80 % 0 mm
11:34 9.1 °C 6.4 °C 1022.2 hPa NW 16.1 km/h 16.1 km/h 83 % 0 mm
11:35 9.1 °C 6.3 °C 1022.6 hPa North 20.4 km/h 20.4 km/h 83 % 0 mm
11:40 8.8 °C 6.6 °C 1022.2 hPa NW 11.1 km/h 11.1 km/h 86 % 0 mm
11:41 8.7 °C 6.5 °C 1022.2 hPa NW 14.8 km/h 14.8 km/h 86 % 0 mm
11:46 8.5 °C 6.4 °C 1022.2 hPa NW 16.7 km/h 16.7 km/h 87 % 0 mm
11:47 8.5 °C 6.6 °C 1022.2 hPa NW 11.1 km/h 11.1 km/h 88 % 0 mm
11:52 8.4 °C 6.7 °C 1022.6 hPa WNW 16.1 km/h 16.1 km/h 89 % 0 mm
11:53 8.4 °C 6.7 °C 1022.2 hPa NW 16.7 km/h 16.7 km/h 89 % 0 mm
11:58 8.3 °C 6.6 °C 1022.2 hPa NW 9.3 km/h 9.3 km/h 89 % 0 mm
12:00 8.3 °C 6.7 °C 1022.2 hPa NW 14.8 km/h 14.8 km/h 90 % 0 mm
12:05 8.2 °C 6.7 °C 1022.2 hPa NW 5.6 km/h 5.6 km/h 90 % 0 mm
12:08 8.2 °C 6.6 °C 1022.2 hPa NNW 8 km/h 8 km/h 90 % 0 mm
12:13 8.2 °C 6.6 °C 1021.9 hPa WNW 16.7 km/h 16.7 km/h 90 % 0 mm
12:17 8.1 °C 6.2 °C 1021.9 hPa NW 9.3 km/h 9.3 km/h 88 % 0 mm
12:22 7.8 °C 5.8 °C 1021.6 hPa NNW 8 km/h 8 km/h 87 % 0 mm
12:23 7.8 °C 5.8 °C 1021.6 hPa NW 5.6 km/h 5.6 km/h 87 % 0 mm
12:28 7.8 °C 5.7 °C 1021.6 hPa NW 5.6 km/h 5.6 km/h 87 % 0 mm
12:29 7.8 °C 5.7 °C 1021.6 hPa NW 5.6 km/h 5.6 km/h 87 % 0 mm
12:34 7.7 °C 5.8 °C 1021.6 hPa NW 9.3 km/h 9.3 km/h 88 % 0 mm
12:35 7.8 °C 5.9 °C 1021.6 hPa NW 8 km/h 8 km/h 88 % 0 mm
12:40 7.8 °C 5.9 °C 1021.6 hPa NW 5.6 km/h 5.6 km/h 88 % 0 mm
12:44 7.8 °C 5.9 °C 1021.6 hPa NW 5.6 km/h 5.6 km/h 88 % 0 mm
12:49 7.8 °C 5.9 °C 1021.9 hPa NW 3.7 km/h 3.7 km/h 88 % 0 mm
12:51 7.8 °C 5.8 °C 1021.6 hPa NW 8 km/h 8 km/h 87 % 0 mm
12:56 7.7 °C 5.7 °C 1021.9 hPa NW 5.6 km/h 5.6 km/h 87 % 0.25 mm
12:57 7.7 °C 5.8 °C 1021.9 hPa NW 5.6 km/h 5.6 km/h 88 % 0.25 mm
13:02 7.5 °C 5.5 °C 1021.9 hPa NW 8 km/h 8 km/h 87 % 0.25 mm
13:06 7.3 °C 5.3 °C 1021.9 hPa NNW 11.1 km/h 11.1 km/h 87 % 0.51 mm
13:08 7.3 °C 5.3 °C 1021.9 hPa NW 5.6 km/h 5.6 km/h 87 % 0.76 mm
13:12 7.2 °C 5.3 °C 1021.6 hPa NNW 5.6 km/h 5.6 km/h 88 % 0.76 mm
13:17 7.1 °C 5.4 °C 1021.6 hPa NW 3.7 km/h 3.7 km/h 89 % 1.02 mm
13:22 7.1 °C 5.5 °C 1021.6 hPa NW 3.7 km/h 3.7 km/h 90 % 1.02 mm
13:23 7.1 °C 5.5 °C 1021.6 hPa NW 4.8 km/h 4.8 km/h 90 % 1.02 mm
13:28 7.1 °C 5.6 °C 1021.6 hPa NW 5.6 km/h 5.6 km/h 90 % 1.02 mm
13:29 7.1 °C 5.6 °C 1021.6 hPa NW 1.9 km/h 1.9 km/h 90 % 1.02 mm
13:31 7.2 °C 5.8 °C 1021.6 hPa NNW 3.7 km/h 3.7 km/h 91 % 1.02 mm
13:35 7.2 °C 5.7 °C 1021.2 hPa NNW 7.4 km/h 7.4 km/h 90 % 1.02 mm
13:40 7.5 °C 6.1 °C 1021.2 hPa WNW 5.6 km/h 5.6 km/h 91 % 1.02 mm
13:41 7.6 °C 6.1 °C 1021.2 hPa North 9.3 km/h 9.3 km/h 90 % 1.02 mm
13:44 7.8 °C 6.2 °C 1021.2 hPa NW 5.6 km/h 5.6 km/h 90 % 1.02 mm
13:49 8.2 °C 6.6 °C 1020.9 hPa WNW 5.6 km/h 5.6 km/h 90 % 1.02 mm
13:50 8.2 °C 6.7 °C 1020.9 hPa NNW 5.6 km/h 5.6 km/h 90 % 1.02 mm
13:55 8.2 °C 6.2 °C 1021.2 hPa NW 5.6 km/h 5.6 km/h 87 % 0.76 mm
13:57 8.3 °C 6.3 °C 1021.2 hPa NNW 5.6 km/h 5.6 km/h 87 % 0.76 mm
14:01 8.6 °C 6.3 °C 1021.2 hPa NW 9.3 km/h 9.3 km/h 86 % 0.76 mm
14:03 8.6 °C 6.2 °C 1021.2 hPa NW 8 km/h 8 km/h 85 % 0.76 mm
14:08 8.8 °C 6.2 °C 1021.2 hPa WNW 5.6 km/h 5.6 km/h 84 % 0.25 mm
14:09 8.8 °C 6.3 °C 1021.2 hPa WNW 5.6 km/h 5.6 km/h 84 % 0.25 mm
14:14 9.1 °C 6.2 °C 1021.2 hPa NW 9.3 km/h 9.3 km/h 82 % 0 mm
14:15 9.1 °C 6.2 °C 1021.2 hPa North 7.4 km/h 7.4 km/h 82 % 0 mm
14:20 9.3 °C 6.1 °C 1021.2 hPa North 6.4 km/h 6.4 km/h 80 % 0 mm
14:22 9.4 °C 6.3 °C 1021.2 hPa NW 6.4 km/h 6.4 km/h 81 % 0 mm
14:23 9.4 °C 6 °C 1021.2 hPa WNW 9.3 km/h 9.3 km/h 79 % 0 mm
14:28 9.5 °C 6.1 °C 1021.2 hPa NW 11.3 km/h 11.3 km/h 79 % 0 mm
14:30 9.5 °C 5.8 °C 1021.2 hPa North 11.1 km/h 11.1 km/h 78 % 0 mm
14:32 9.5 °C 6.1 °C 1021.2 hPa WNW 6.4 km/h 6.4 km/h 79 % 0 mm
14:37 9.5 °C 6.1 °C 1021.2 hPa NW 5.6 km/h 5.6 km/h 79 % 0 mm
14:41 9.6 °C 6.3 °C 1021.2 hPa NW 3.7 km/h 3.7 km/h 80 % 0 mm
14:44 9.7 °C 6.1 °C 1021.2 hPa NW 9.3 km/h 9.3 km/h 78 % 0 mm
14:49 9.7 °C 5.7 °C 1021.2 hPa NW 11.1 km/h 11.1 km/h 76 % 0 mm
14:52 9.8 °C 5.7 °C 1021.2 hPa NNW 9.3 km/h 9.3 km/h 76 % 0 mm
14:54 9.8 °C 5.6 °C 1021.2 hPa NW 11.1 km/h 11.1 km/h 75 % 0 mm
14:58 9.8 °C 5.6 °C 1021.2 hPa WSW 5.6 km/h 5.6 km/h 75 % 0 mm
15:00 9.9 °C 5.7 °C 1021.2 hPa North 3.7 km/h 4.3 km/h 75 % 0 mm
15:03 9.9 °C 5.7 °C 1021.2 hPa NW 5.6 km/h 5.6 km/h 75 % 0 mm
15:08 9.9 °C 5.7 °C 1021.2 hPa West 7.4 km/h 7.4 km/h 75 % 0 mm
15:09 9.9 °C 5.7 °C 1021.2 hPa NW 5.6 km/h 5.6 km/h 75 % 0 mm
15:12 9.8 °C 5.6 °C 1021.2 hPa NW 9.3 km/h 9.3 km/h 75 % 0 mm
15:14 9.8 °C 5.6 °C 1021.2 hPa North 5.6 km/h 5.6 km/h 75 % 0 mm
15:19 9.9 °C 5.7 °C 1021.2 hPa NW 3.2 km/h 3.2 km/h 75 % 0 mm
15:20 9.9 °C 5.7 °C 1021.2 hPa WNW 5.6 km/h 5.6 km/h 75 % 0 mm
15:24 9.9 °C 5.4 °C 1021.2 hPa NW 7.4 km/h 7.4 km/h 74 % 0 mm
15:25 9.9 °C 5.4 °C 1021.2 hPa NW 5.6 km/h 5.6 km/h 74 % 0 mm
15:30 9.9 °C 5.5 °C 1021.2 hPa NW 3.7 km/h 3.7 km/h 74 % 0 mm
15:35 9.9 °C 5.5 °C 1021.2 hPa NW 5.6 km/h 5.6 km/h 74 % 0 mm
15:36 9.9 °C 5.4 °C 1021.2 hPa NW 3.7 km/h 3.7 km/h 74 % 0 mm
15:38 9.9 °C 5.4 °C 1021.2 hPa NW 7.4 km/h 7.4 km/h 74 % 0 mm
15:41 9.8 °C 5.4 °C 1021.2 hPa NW 1.6 km/h   74 % 0 mm
15:46 9.8 °C 5.4 °C 1021.2 hPa NW 3.7 km/h 3.7 km/h 74 % 0 mm
15:47 9.8 °C 5.4 °C 1021.2 hPa NW 1.9 km/h 1.9 km/h 74 % 0 mm
15:51 9.8 °C 5.4 °C 1020.9 hPa WNW 1.9 km/h 1.9 km/h 74 % 0 mm
15:55 9.8 °C 5.4 °C 1020.9 hPa NW 1.9 km/h 1.9 km/h 74 % 0 mm
15:58 9.8 °C 5.4 °C 1020.9 hPa WNW 1.9 km/h 1.9 km/h 74 % 0 mm
16:00 9.8 °C 5.4 °C 1020.9 hPa North 1.9 km/h 1.9 km/h 74 % 0 mm
16:03 9.7 °C 5.3 °C 1020.9 hPa WNW 3.7 km/h 3.7 km/h 74 % 0 mm
16:08 9.7 °C 5.3 °C 1020.9 hPa NW 1.9 km/h   74 % 0 mm
16:12 9.7 °C 5.3 °C 1020.9 hPa Calm     74 % 0 mm
16:14 9.6 °C 5.4 °C 1020.9 hPa WNW 3.7 km/h 3.7 km/h 75 % 0 mm
16:19 9.6 °C 5.3 °C 1020.9 hPa North 1.9 km/h 1.9 km/h 75 % 0 mm
16:21 9.5 °C 5.3 °C 1020.9 hPa Calm     75 % 0 mm
16:22 9.5 °C 5.3 °C 1020.9 hPa NNE 1.6 km/h 1.6 km/h 75 % 0 mm
16:27 9.4 °C 5.2 °C 1020.9 hPa NNE 1.9 km/h 1.9 km/h 75 % 0 mm
16:28 9.4 °C 5.2 °C 1020.9 hPa Calm     75 % 0 mm
16:33 9.3 °C 5.3 °C 1020.9 hPa Calm     76 % 0 mm
16:38 9.1 °C 5.1 °C 1020.9 hPa Calm     76 % 0 mm
16:43 8.8 °C 5 °C 1020.9 hPa Calm     77 % 0 mm
16:44 8.7 °C 4.9 °C 1020.9 hPa Calm     77 % 0 mm
16:49 8.4 °C 5 °C 1020.9 hPa Calm     79 % 0 mm
16:50 8.4 °C 4.9 °C 1020.9 hPa Calm     79 % 0 mm
16:51 8.3 °C 4.9 °C 1020.9 hPa Calm     79 % 0 mm
16:57 7.9 °C 4.9 °C 1020.9 hPa Calm     81 % 0 mm
17:02 7.7 °C 4.8 °C 1020.9 hPa Calm     82 % 0 mm
17:03 7.6 °C 4.7 °C 1021.2 hPa Calm     82 % 0 mm
17:08 7.4 °C 4.7 °C 1021.2 hPa Calm     83 % 0 mm
17:13 7.2 °C 4.7 °C 1021.2 hPa Calm     84 % 0 mm
17:15 7.2 °C 4.7 °C 1021.2 hPa Calm     84 % 0 mm
17:20 7 °C 4.7 °C 1021.2 hPa Calm     85 % 0 mm
17:22 7 °C 4.7 °C 1021.2 hPa Calm     85 % 0 mm
17:27 6.9 °C 4.8 °C 1021.2 hPa Calm     86 % 0 mm
17:32 6.9 °C 4.7 °C 1021.2 hPa Calm     86 % 0 mm
17:35 6.8 °C 4.7 °C 1021.2 hPa Calm     86 % 0 mm
17:39 6.7 °C 4.6 °C 1021.2 hPa Calm     86 % 0 mm
17:40 6.7 °C 4.6 °C 1021.2 hPa Calm     86 % 0 mm
17:45 6.6 °C 4.6 °C 1021.2 hPa Calm     87 % 0 mm
17:50 6.3 °C 4.5 °C 1021.2 hPa Calm     88 % 0 mm
17:53 6.2 °C 4.4 °C 1021.2 hPa Calm     88 % 0 mm
17:54 6.2 °C 4.3 °C 1021.2 hPa Calm     88 % 0 mm
17:59 5.9 °C 4.1 °C 1021.2 hPa Calm     88 % 0 mm
18:03 5.8 °C 4.2 °C 1021.2 hPa Calm     89 % 0 mm
18:04 5.8 °C 4.1 °C 1021.2 hPa Calm     89 % 0 mm
18:09 5.8 °C 4.3 °C 1021.6 hPa Calm     90 % 0 mm
18:10 5.8 °C 4.3 °C 1021.6 hPa Calm     90 % 0 mm
18:12 5.8 °C 4.3 °C 1021.6 hPa Calm     90 % 0 mm
18:16 5.9 °C 4.4 °C 1021.6 hPa Calm     90 % 0 mm
18:21 6 °C 4.5 °C 1021.6 hPa Calm     90 % 0 mm
18:22 6 °C 4.5 °C 1021.6 hPa Calm     90 % 0 mm
18:27 6 °C 4.3 °C 1021.9 hPa Calm     89 % 0 mm
18:28 6 °C 4.5 °C 1021.9 hPa North 1.9 km/h   90 % 0 mm
18:33 6.1 °C 4.6 °C 1021.9 hPa Calm     90 % 0 mm
18:38 6.1 °C 4.6 °C 1021.9 hPa Calm     90 % 0 mm
18:43 6.2 °C 4.7 °C 1021.9 hPa Calm     90 % 0 mm
18:44 6.2 °C 4.7 °C 1021.9 hPa Calm     90 % 0 mm
18:47 6.2 °C 4.7 °C 1021.9 hPa North 1.9 km/h 1.9 km/h 90 % 0 mm
18:50 6.2 °C 4.7 °C 1021.9 hPa Calm     90 % 0 mm
18:54 6.2 °C 4.8 °C 1022.2 hPa Calm     91 % 0 mm
18:56 6.2 °C 4.8 °C 1022.2 hPa Calm     91 % 0 mm
19:01 6.2 °C 4.9 °C 1022.2 hPa Calm     91 % 0 mm
19:06 6.3 °C 4.8 °C 1022.2 hPa Calm     90 % 0 mm
19:07 6.3 °C 4.8 °C 1022.2 hPa Calm     90 % 0 mm
19:12 6.4 °C 4.9 °C 1022.2 hPa Calm     90 % 0 mm
19:16 6.4 °C 4.9 °C 1022.2 hPa Calm     90 % 0 mm
19:21 6.5 °C 5 °C 1022.2 hPa Calm     90 % 0 mm
19:23 6.6 °C 5.1 °C 1022.2 hPa Calm     90 % 0 mm
19:28 6.6 °C 5.1 °C 1022.2 hPa Calm     90 % 0 mm
19:29 6.6 °C 5.1 °C 1022.2 hPa Calm     90 % 0 mm
19:34 6.7 °C 5.2 °C 1022.2 hPa Calm     90 % 0 mm
19:36 6.7 °C 5 °C 1022.2 hPa Calm     89 % 0 mm
19:38 6.7 °C 5 °C 1022.2 hPa Calm     89 % 0 mm
19:42 6.7 °C 5.2 °C 1022.6 hPa Calm     90 % 0 mm
19:47 6.6 °C 5.1 °C 1022.6 hPa Calm     90 % 0 mm
19:48 6.6 °C 5.1 °C 1022.6 hPa Calm     90 % 0 mm
19:51 6.6 °C 5.1 °C 1022.6 hPa Calm     90 % 0 mm
19:56 6.4 °C 4.9 °C 1022.6 hPa NNE 1.9 km/h   90 % 0 mm
19:58 6.4 °C 4.9 °C 1022.6 hPa NNE 1.9 km/h 1.9 km/h 90 % 0 mm
20:03 6.2 °C 4.7 °C 1022.6 hPa NNE 3.7 km/h 3.7 km/h 90 % 0 mm
20:05 6.2 °C 4.7 °C 1022.6 hPa NNE 5.6 km/h 5.6 km/h 90 % 0 mm
20:10 6.1 °C 4.7 °C 1022.9 hPa NNE 1.9 km/h   91 % 0 mm
20:14 6 °C 4.7 °C 1022.6 hPa NNE 1.9 km/h   91 % 0 mm
20:19 5.8 °C 4.5 °C 1022.6 hPa Calm     91 % 0 mm
20:20 5.8 °C 4.4 °C 1022.6 hPa NNE 1.9 km/h 1.9 km/h 91 % 0 mm
20:25 5.7 °C 4.3 °C 1022.6 hPa Calm     91 % 0 mm
20:26 5.6 °C 4.3 °C 1022.6 hPa Calm     91 % 0 mm
20:29 5.6 °C 4.2 °C 1022.6 hPa Calm   0.2 km/h 91 % 0 mm
20:34 5.4 °C 4.2 °C 1022.6 hPa Calm     92 % 0 mm
20:39 5.3 °C 4.1 °C 1022.6 hPa NNE 1.9 km/h 1.9 km/h 92 % 0 mm
20:41 5.3 °C 4.1 °C 1022.6 hPa NNE 1.9 km/h   92 % 0 mm
20:46 5.2 °C 4 °C 1022.6 hPa NNE 3.7 km/h 3.7 km/h 92 % 0 mm
20:51 5.1 °C 3.9 °C 1022.6 hPa NNE 1.9 km/h 1.9 km/h 92 % 0 mm
20:56 5 °C 3.9 °C 1022.6 hPa NNE 1.6 km/h   93 % 0 mm
21:01 4.9 °C 3.8 °C 1022.9 hPa NNE 1.9 km/h 1.9 km/h 93 % 0 mm
21:05 4.8 °C 3.7 °C 1022.9 hPa Calm     93 % 0 mm
21:10 4.7 °C 3.6 °C 1022.9 hPa NNE 1.9 km/h 1.9 km/h 93 % 0 mm
21:13 4.7 °C 3.6 °C 1022.6 hPa NNE 1.9 km/h 1.9 km/h 93 % 0 mm
21:18 4.6 °C 3.6 °C 1022.6 hPa NNE 1.9 km/h 1.9 km/h 93 % 0 mm
21:20 4.6 °C 3.6 °C 1022.6 hPa NNE 1.9 km/h 1.9 km/h 93 % 0 mm
21:25 4.5 °C 3.4 °C 1022.6 hPa NNE 1.9 km/h   93 % 0 mm
21:26 4.5 °C 3.4 °C 1022.6 hPa NNE 1.9 km/h 1.9 km/h 93 % 0 mm
21:31 4.4 °C 3.3 °C 1022.6 hPa NNE 1.9 km/h 1.9 km/h 93 % 0 mm
21:32 4.4 °C 3.3 °C 1022.6 hPa NNE 1.9 km/h   93 % 0 mm
21:37 4.3 °C 3.4 °C 1022.6 hPa Calm     94 % 0 mm
21:38 4.3 °C 3.4 °C 1022.6 hPa Calm     94 % 0 mm
21:43 4.2 °C 3.3 °C 1022.6 hPa NNE 1.9 km/h   94 % 0 mm
21:44 4.2 °C 3.3 °C 1022.6 hPa Calm     94 % 0 mm
21:45 4.2 °C 3.3 °C 1022.6 hPa NNE 1.9 km/h   94 % 0 mm
21:50 4.1 °C 3.2 °C 1022.6 hPa Calm     94 % 0 mm
21:54 4.1 °C 3.2 °C 1022.6 hPa Calm     94 % 0 mm
21:55 4.1 °C 3.2 °C 1022.6 hPa Calm     94 % 0 mm
21:59 3.9 °C 3.1 °C 1022.6 hPa NNE 1.9 km/h   94 % 0 mm
22:01 3.9 °C 3.1 °C 1022.6 hPa Calm     94 % 0 mm
22:06 3.9 °C 3.1 °C 1022.6 hPa Calm     94 % 0 mm
22:07 3.9 °C 3.1 °C 1022.6 hPa Calm     94 % 0 mm
22:13 3.9 °C 3.1 °C 1022.6 hPa NNE 1.9 km/h 1.9 km/h 94 % 0 mm
22:16 3.9 °C 3.1 °C 1022.6 hPa NNE 1.9 km/h 1.9 km/h 94 % 0 mm
22:21 3.9 °C 3.1 °C 1022.9 hPa NNE 1.9 km/h   94 % 0 mm
22:26 3.8 °C 2.9 °C 1022.9 hPa NNE 1.9 km/h 1.9 km/h 94 % 0 mm
22:31 3.7 °C 2.8 °C 1022.9 hPa NNE 1.9 km/h 1.9 km/h 94 % 0 mm
22:33 3.7 °C 2.8 °C 1022.9 hPa NNE 1.9 km/h   94 % 0 mm
22:38 3.7 °C 3 °C 1022.9 hPa NNE 1.9 km/h 1.9 km/h 95 % 0 mm
22:39 3.8 °C 3.1 °C 1022.9 hPa NNE 5.6 km/h 5.6 km/h 95 % 0 mm
22:42 3.8 °C 3.1 °C 1022.9 hPa NNE 1.9 km/h 1.9 km/h 95 % 0 mm
22:45 3.8 °C 3.1 °C 1022.9 hPa NNE 1.9 km/h 1.9 km/h 95 % 0 mm
22:50 3.7 °C 3 °C 1022.9 hPa NNE 1.9 km/h   95 % 0 mm
22:51 3.7 °C 3 °C 1022.9 hPa Calm     95 % 0 mm
22:56 3.6 °C 2.9 °C 1022.9 hPa Calm     95 % 0 mm
22:57 3.6 °C 2.9 °C 1022.9 hPa Calm     95 % 0 mm
23:01 3.5 °C 2.8 °C 1022.9 hPa NNE 1.9 km/h   95 % 0 mm
23:06 3.4 °C 2.7 °C 1022.9 hPa Calm     95 % 0 mm
23:07 3.4 °C 2.7 °C 1022.9 hPa Calm     95 % 0 mm
23:11 3.3 °C 2.6 °C 1022.9 hPa Calm     95 % 0 mm
23:13 3.3 °C 2.6 °C 1022.9 hPa Calm     95 % 0 mm
23:18 3.1 °C 2.2 °C 1022.9 hPa Calm     94 % 0 mm
23:21 3 °C 2.3 °C 1022.9 hPa Calm     95 % 0 mm
23:24 2.9 °C 2 °C 1022.9 hPa Calm     94 % 0 mm
23:29 2.7 °C 1.8 °C 1022.9 hPa Calm     94 % 0 mm
23:34 2.6 °C 1.9 °C 1022.9 hPa Calm     95 % 0 mm
23:35 2.6 °C 1.9 °C 1022.9 hPa Calm     95 % 0 mm
23:40 2.4 °C 1.7 °C 1022.9 hPa Calm     95 % 0 mm
23:41 2.4 °C 1.7 °C 1022.9 hPa Calm     95 % 0 mm
23:46 2.3 °C 1.6 °C 1022.9 hPa Calm     95 % 0 mm
23:50 2.3 °C 1.6 °C 1022.9 hPa Calm     95 % 0 mm
23:52 2.2 °C 1.5 °C 1022.9 hPa Calm     95 % 0 mm
23:57 2.3 °C 1.6 °C 1022.9 hPa Calm     95 % 0 mm
23:59 2.3 °C 1.6 °C 1022.9 hPa Calm     95 % 0 mm
Park Place, Exeter, Tulare County, California, USA
Compliments of Weather Underground - 3.5 mb